Le nostre stazioni meteo in Italia

Pubblicità
Il mio iltempo24.it
Decimomannu, Italia (16546): Temperatura & dewpoint: 12.03.2019 20:00:00 - 18.03.2019 20:00:00 (CET)Decimomannu, Italia (16546): velocità del vento: 12.03.2019 20:00:00 - 18.03.2019 20:00:00 (CET)Decimomannu, Italia (16546): direzione del vento: 12.03.2019 20:00:00 - 18.03.2019 20:00:00 (CET)Decimomannu, Italia (16546): reduced air pressure: 12.03.2019 20:00:00 - 18.03.2019 20:00:00 (CET)Decimomannu, Italia (16546): visibility: 12.03.2019 20:00:00 - 18.03.2019 20:00:00 (CET)
Data & Tempo tt [°C] td [°C] ff [km/h] ff [kn] dd ppp [hPa] vv [km]
18.03.2019 20:00:00 - - - - - - -
18.03.2019 19:00:00 11,6 8,8 26 14 NO 1018,0 16
18.03.2019 18:00:00 12,0 9,0 29 16 NO - 10
18.03.2019 17:00:00 14,0 9,0 35 19 NO - 10
18.03.2019 16:00:00 14,4 9,0 39 21 NO 1016,8 25
18.03.2019 15:00:00 15,0 9,0 37 20 NO - 10
18.03.2019 14:00:00 16,0 10,0 41 22 NNO - 10
18.03.2019 13:00:00 16,2 7,9 35 19 NO 1016,9 25
18.03.2019 12:00:00 16,0 8,0 31 17 NO - 10
18.03.2019 11:00:00 16,0 8,0 29 16 NO - 10
18.03.2019 10:00:00 13,6 7,8 31 17 NNO 1016,5 25
18.03.2019 09:00:00 12,0 8,0 28 15 NNO - 10
18.03.2019 08:00:00 11,0 9,0 24 13 NO - 10
18.03.2019 07:00:00 9,8 8,2 21 11 NNO 1014,3 12
18.03.2019 06:00:00 9,0 8,0 18 10 NNO - 8
18.03.2019 05:00:00 8,0 7,0 9 5 NNO - 4,0
18.03.2019 04:00:00 9,2 7,7 8 4 NNO 1013,8 0,6
18.03.2019 03:00:00 10,0 9,0 9 5 N - 0,4
18.03.2019 02:00:00 9,0 8,0 5 3 NNE - 0,4
18.03.2019 01:00:00 9,6 8,1 8 4 NNO 1013,8 10
18.03.2019 00:00:00 11,0 10,0 4 2 NNO - 10
17.03.2019 23:00:00 10,0 9,0 5 3 SE - 10
17.03.2019 22:00:00 11,0 9,9 8 4 N 1014,8 15
17.03.2019 21:00:00 11,0 10,0 8 4 E - 10
17.03.2019 20:00:00 12,0 11,0 5 3 ESE - 10
17.03.2019 19:00:00 14,4 13,8 8 4 SSE 1014,0 30
17.03.2019 18:00:00 17,0 15,0 13 7 SSE - 10
17.03.2019 17:00:00 18,0 16,0 15 8 SSE - 10
17.03.2019 16:00:00 18,6 15,8 21 11 SSE 1014,9 30
17.03.2019 15:00:00 20,0 14,0 18 10 SSE - 10
17.03.2019 14:00:00 21,0 12,0 16 9 SSE - 10
17.03.2019 13:00:00 19,0 11,6 15 8 SSE 1016,8 30
17.03.2019 12:00:00 19,0 12,0 11 6 SSE - 10
17.03.2019 11:00:00 17,0 12,0 8 4 S - 10
17.03.2019 10:00:00 13,0 10,9 2 1 S 1018,4 30
17.03.2019 09:00:00 9,0 7,0 2 1 ONO - 10
17.03.2019 08:00:00 6,0 5,0 4 2 N - 10
17.03.2019 07:00:00 4,4 2,9 8 4 NNE 1018,4 3,0
17.03.2019 06:00:00 4,0 3,0 2 1 SO - 0,8
17.03.2019 05:00:00 4,0 3,0 5 3 O - 10
17.03.2019 04:00:00 5,0 3,5 5 3 O 1018,9 18
17.03.2019 03:00:00 7,0 5,0 9 5 N - 10
17.03.2019 02:00:00 7,0 5,0 4 2 NNO - 10
17.03.2019 01:00:00 8,2 6,7 4 2 ONO 1019,9 15
17.03.2019 00:00:00 9,0 7,0 4 2 NO - 10
16.03.2019 23:00:00 10,0 8,0 11 6 NO - 10
16.03.2019 22:00:00 10,4 8,8 15 8 NNE 1020,3 20
16.03.2019 21:00:00 11,0 9,0 13 7 NNE - 10
16.03.2019 20:00:00 13,0 11,0 16 9 NNO - 10
16.03.2019 19:00:00 14,0 11,4 26 14 NNO 1019,8 25
16.03.2019 18:00:00 15,0 10,0 28 15 NNO - 10
16.03.2019 17:00:00 17,0 10,0 31 17 NNO - 10
16.03.2019 16:00:00 17,4 9,1 39 21 NNO 1019,3 25
16.03.2019 15:00:00 18,0 9,0 35 19 NO - 10
16.03.2019 14:00:00 18,0 11,0 34 18 NO - 10
16.03.2019 13:00:00 18,2 12,0 34 18 NO 1020,2 25
16.03.2019 12:00:00 17,0 12,0 34 18 NO - 10
16.03.2019 11:00:00 17,0 12,0 39 21 NNO - 10
16.03.2019 10:00:00 15,8 12,0 34 18 NO 1020,9 15
16.03.2019 09:00:00 15,0 13,0 22 12 NNO - 10
16.03.2019 08:00:00 - - - - - - -
16.03.2019 07:00:00 13,0 11,2 22 12 NO 1020,3 10
16.03.2019 06:00:00 - - - - - - -
16.03.2019 05:00:00 - - - - - - -
16.03.2019 04:00:00 13,2 11,6 22 12 NO 1020,2 12
16.03.2019 03:00:00 - - - - - - -
16.03.2019 02:00:00 - - - - - - -
16.03.2019 01:00:00 12,8 11,4 15 8 NO 1021,4 10
16.03.2019 00:00:00 13,0 11,0 5 3 ONO - 10
15.03.2019 23:00:00 13,0 12,0 13 7 NO - 10
15.03.2019 22:00:00 13,0 11,7 22 12 NO 1020,5 12
15.03.2019 21:00:00 14,0 13,0 26 14 ONO - 10
15.03.2019 20:00:00 14,0 13,0 24 13 NO - 10
15.03.2019 19:00:00 14,0 12,9 11 6 NO 1019,7 15
15.03.2019 18:00:00 15,0 13,0 34 18 ONO - 10
15.03.2019 17:00:00 15,0 13,0 37 20 NO - 10
15.03.2019 16:00:00 15,6 13,1 37 20 NO 1018,6 12
15.03.2019 15:00:00 16,0 13,0 41 22 NO - 10
15.03.2019 14:00:00 16,0 12,0 37 20 NO - 10
15.03.2019 13:00:00 16,2 13,1 41 22 NO 1019,1 12
15.03.2019 12:00:00 16,0 12,0 44 24 NO - 10
15.03.2019 11:00:00 15,0 12,0 35 19 NO - 10
15.03.2019 10:00:00 14,0 11,5 34 18 NO 1018,9 10
15.03.2019 09:00:00 14,0 12,0 34 18 ONO - 10
15.03.2019 08:00:00 13,0 11,0 35 19 ONO - 10
15.03.2019 07:00:00 12,8 11,2 28 15 ONO 1017,9 12
15.03.2019 06:00:00 13,0 11,0 26 14 ONO - 10
15.03.2019 05:00:00 13,0 11,0 34 18 ONO - 10
15.03.2019 04:00:00 13,0 10,9 35 19 ONO 1016,9 15
15.03.2019 03:00:00 13,0 11,0 41 22 ONO - 10
15.03.2019 02:00:00 13,0 11,0 35 19 ONO - 10
15.03.2019 01:00:00 13,0 10,5 34 18 ONO 1019,3 14
15.03.2019 00:00:00 12,0 9,0 35 19 ONO - 10
14.03.2019 23:00:00 13,0 10,0 46 25 ONO - 10
14.03.2019 22:00:00 12,8 9,6 31 17 ONO 1019,9 15
14.03.2019 21:00:00 13,0 11,0 35 19 ONO - 10
14.03.2019 20:00:00 12,0 9,0 42 23 NO - 10
14.03.2019 19:00:00 12,2 9,8 42 23 ONO 1019,5 15
14.03.2019 18:00:00 13,0 9,0 29 16 ONO - 10
14.03.2019 17:00:00 13,0 10,0 39 21 ONO - 10
14.03.2019 16:00:00 14,0 10,2 44 24 NO 1019,7 15
14.03.2019 15:00:00 14,0 9,0 46 25 NO - 10
14.03.2019 14:00:00 15,0 10,0 41 22 NO - 10
14.03.2019 13:00:00 14,0 10,4 42 23 NO 1020,4 15
14.03.2019 12:00:00 14,0 11,0 37 20 NO - 10
14.03.2019 11:00:00 12,0 10,0 41 22 NO - 10
14.03.2019 10:00:00 10,4 9,0 26 14 NO 1020,8 7
14.03.2019 09:00:00 11,0 9,0 21 11 NNO - 8
14.03.2019 08:00:00 10,0 8,0 15 8 NO - 8
14.03.2019 07:00:00 9,6 8,1 16 9 NO 1019,0 8
14.03.2019 06:00:00 9,0 8,0 28 15 NO - 10
14.03.2019 05:00:00 11,0 8,0 21 11 NO - 10
14.03.2019 04:00:00 11,0 8,7 31 17 ONO 1018,1 12
14.03.2019 03:00:00 11,0 8,0 29 16 ONO - 10
14.03.2019 02:00:00 11,0 9,0 24 13 ONO - 10
14.03.2019 01:00:00 11,0 8,2 21 11 NO 1018,2 12
14.03.2019 00:00:00 10,0 9,0 11 6 NO - 10
13.03.2019 23:00:00 11,0 9,0 5 3 N - 10
13.03.2019 22:00:00 11,0 9,3 18 10 ONO 1018,0 12
13.03.2019 21:00:00 11,0 8,0 22 12 ONO - 10
13.03.2019 20:00:00 11,0 9,0 21 11 ONO - 10
13.03.2019 19:00:00 10,0 8,4 5 3 N 1017,5 10
13.03.2019 18:00:00 - - - - - - -
13.03.2019 17:00:00 - - - - - - -
13.03.2019 16:00:00 17,2 12,9 22 12 NO 1015,8 16
13.03.2019 15:00:00 - - - - - - -
13.03.2019 14:00:00 - - - - - - -
13.03.2019 13:00:00 16,0 13,5 15 8 N 1018,2 16
13.03.2019 12:00:00 - - - - - - -
13.03.2019 11:00:00 15,0 11,0 8 4 ONO - 10
13.03.2019 10:00:00 12,6 10,0 5 3 NO 1020,2 12
13.03.2019 09:00:00 10,0 8,0 4 2 NNO - 10
13.03.2019 08:00:00 6,0 5,0 5 3 NE - 10
13.03.2019 07:00:00 4,8 3,8 5 3 O 1020,4 20
13.03.2019 06:00:00 5,0 4,0 5 3 ENE - 10
13.03.2019 05:00:00 6,0 5,0 5 3 NNO - 10
13.03.2019 04:00:00 6,2 5,2 4 2 NNO 1021,1 15
13.03.2019 03:00:00 5,0 4,0 5 3 NO - 10
13.03.2019 02:00:00 6,0 5,0 11 6 NE - 10
13.03.2019 01:00:00 7,0 5,8 5 3 NNE 1023,5 15
13.03.2019 00:00:00 7,0 6,0 4 2 OSO - 10
12.03.2019 23:00:00 8,0 8,0 5 3 NO - 10
12.03.2019 22:00:00 9,0 8,1 4 2 E 1024,9 15
12.03.2019 21:00:00 8,0 7,0 9 5 N - 10
12.03.2019 20:00:00 10,0 7,0 5 3 O - 10

tt = Temperatura
td = dewpoint
ff = velocità del vento
dd = direzione del vento
ppp = reduced air pressure
vv = visibility

Stazioni seguenti

WeatherPro
AMSI
MeteoEarth